Date String (YYYY-MM-DD hh:mm:ss) UTC,Instrument flags,absolute air pressure of the measurement (hPa),sample flow rate (lpm),inlet stack bypass flow (lpm),air temperature of the measurement (°C),ambient temperature measured by the external sensor (°C),aerosol sample conditioner tube jacket temperature (°C),OPC LED temperature (°C),internal box temperature (°C),relative humidity of the measurement (%),span deviation,mass concentration of particles derived from Lorenz-Mie calculation of OPC scattering (μg/m³),mass concentration of particles derived from Lorenz-Mie calculation of OPC scattering (μg/m³),mass concentration of particles derived from Lorenz-Mie calculation of OPC scattering (μg/m³)
DateTimeUTC,F1_M11,P_M11,Q1_M11,Q2_M11,T1_M11,T2_M11,T3_M11,T4_M11,T5_M11,U1_M11,ZSPAN_M11,X0_M11,X2_M11,X1_M11
2024-02-10 04:00:00,SystemResetWarning,0824.4,5.00,000.00,020.2,019.7,000.0,028.8,022.0,22.9,0000.0,0010.17,0006.14,0005.80
2024-02-10 04:01:00,SystemResetWarning,0824.4,5.00,000.00,020.2,019.7,000.0,028.8,022.0,23.0,0000.0,0010.14,0006.16,0005.84
2024-02-10 04:02:00,SystemResetWarning,0824.4,5.00,000.00,020.2,019.7,000.0,028.8,022.0,23.0,0000.0,0010.10,0006.18,0005.88
2024-02-10 04:03:00,SystemResetWarning,0824.4,5.00,000.00,020.2,019.7,000.0,028.8,022.0,23.0,0000.0,0010.13,0006.21,0005.93
2024-02-10 04:04:00,SystemResetWarning,0824.4,5.00,000.00,020.2,019.7,000.0,028.8,022.0,23.0,0000.0,0009.92,0006.25,0005.99
2024-02-10 04:05:00,SystemResetWarning,0824.4,5.00,000.00,020.2,019.7,000.0,028.8,022.0,23.0,0000.0,0009.60,0006.27,0006.04
2024-02-10 04:06:00,SystemResetWarning,0824.4,5.00,000.00,020.2,019.7,000.0,028.7,021.9,23.1,0000.0,0009.59,0006.34,0006.11
2024-02-10 04:07:00,SystemResetWarning,0824.4,5.00,000.00,020.2,019.6,000.0,028.7,021.9,23.1,0000.0,0009.15,0006.37,0006.16
2024-02-10 04:08:00,SystemResetWarning,0824.5,5.00,000.00,020.2,019.6,000.0,028.7,021.9,23.1,0000.0,0009.11,0006.42,0006.22
2024-02-10 04:09:00,SystemResetWarning,0824.5,5.00,000.00,020.2,019.6,000.0,028.7,021.9,23.2,0000.0,0009.14,0006.47,0006.26
2024-02-10 04:10:00,SystemResetWarning,0824.5,5.00,000.00,020.2,019.6,000.0,028.7,021.9,23.2,0000.0,0009.19,0006.51,0006.29
2024-02-10 04:11:00,SystemResetWarning,0824.6,5.01,000.00,020.2,019.6,000.0,028.7,021.9,23.2,0000.0,0009.38,0006.58,0006.33
2024-02-10 04:12:00,SystemResetWarning,0824.6,5.00,000.00,020.1,019.6,000.0,028.7,021.9,24.0,0000.0,0009.41,0006.62,0006.37
2024-02-10 04:13:00,SystemResetWarning,0824.6,5.00,000.00,020.1,019.6,000.0,028.7,021.9,24.8,0000.0,0009.46,0006.64,0006.39
2024-02-10 04:14:00,SystemResetWarning,0824.6,5.00,000.00,020.1,019.6,000.0,028.7,021.9,23.9,0000.0,0009.49,0006.66,0006.40
2024-02-10 04:15:00,SystemResetWarning,0824.7,4.99,000.00,020.1,019.6,000.0,028.7,021.9,23.6,0000.0,0009.50,0006.68,0006.42
2024-02-10 04:16:00,SystemResetWarning,0824.7,5.00,000.00,020.1,019.5,000.0,028.7,021.9,23.5,0000.0,0009.53,0006.71,0006.45
2024-02-10 04:17:00,SystemResetWarning,0824.7,5.00,000.00,020.1,019.5,000.0,028.7,021.9,23.5,0000.0,0009.61,0006.74,0006.46
2024-02-10 04:18:00,SystemResetWarning,0824.7,5.00,000.00,020.1,019.5,000.0,028.7,021.9,23.5,0000.0,0009.67,0006.78,0006.49
2024-02-10 04:19:00,SystemResetWarning,0824.7,5.00,000.00,020.1,019.5,000.0,028.7,021.9,23.5,0000.0,0009.72,0006.83,0006.53
2024-02-10 04:20:00,SystemResetWarning,0824.7,5.00,000.00,020.1,019.5,000.0,028.6,021.8,23.5,0000.0,0009.79,0006.87,0006.56
2024-02-10 04:21:00,SystemResetWarning,0824.7,5.01,000.00,020.1,019.5,000.0,028.6,021.8,23.5,0000.0,0009.92,0006.94,0006.62
2024-02-10 04:22:00,SystemResetWarning,0824.7,5.00,000.00,020.1,019.5,000.0,028.6,021.8,23.5,0000.0,0009.88,0006.97,0006.66
2024-02-10 04:23:00,SystemResetWarning,0824.7,5.00,000.00,020.1,019.5,000.0,028.6,021.8,23.5,0000.0,0009.90,0007.00,0006.69
2024-02-10 04:24:00,SystemResetWarning,0824.7,4.99,000.00,020.0,019.5,000.0,028.6,021.8,23.6,0000.0,0009.96,0007.05,0006.72
2024-02-10 04:25:00,SystemResetWarning,0824.7,5.00,000.00,020.0,019.5,000.0,028.6,021.8,23.6,0000.0,0009.99,0007.08,0006.77
2024-02-10 04:26:00,SystemResetWarning,0824.8,5.00,000.00,020.0,019.5,000.0,028.6,021.8,23.6,0000.0,0010.08,0007.15,0006.82
2024-02-10 04:27:00,SystemResetWarning,0824.8,5.00,000.00,020.0,019.5,000.0,028.6,021.8,23.6,0000.0,0010.25,0007.20,0006.86
2024-02-10 04:28:00,SystemResetWarning,0824.7,5.00,000.00,020.0,019.5,000.0,028.6,021.8,23.6,0000.0,0010.24,0007.24,0006.90
2024-02-10 04:29:00,SystemResetWarning,0824.8,5.00,000.00,020.0,019.5,000.0,028.6,021.8,23.6,0000.0,0010.24,0007.27,0006.95
2024-02-10 04:30:00,SystemResetWarning,0824.8,5.01,000.00,020.0,019.5,000.0,028.6,021.8,23.6,0000.0,0010.28,0007.30,0006.99
2024-02-10 04:31:00,SystemResetWarning,0824.8,5.01,000.00,020.0,019.5,000.0,028.6,021.8,23.6,0000.0,0010.29,0007.32,0007.03
2024-02-10 04:32:00,SystemResetWarning,0824.8,5.00,000.00,020.0,019.5,000.0,028.5,021.7,23.6,0000.0,0010.28,0007.34,0007.05
2024-02-10 04:33:00,SystemResetWarning,0824.8,4.99,000.00,020.0,019.4,000.0,028.5,021.7,23.6,0000.0,0010.23,0007.33,0007.07
2024-02-10 04:34:00,SystemResetWarning,0824.7,5.00,000.00,020.0,019.4,000.0,028.5,021.8,23.6,0000.0,0010.18,0007.32,0007.07
2024-02-10 04:35:00,SystemResetWarning,0824.7,5.00,000.00,020.0,019.4,000.0,028.5,021.8,23.6,0000.0,0010.19,0007.33,0007.08
2024-02-10 04:36:00,SystemResetWarning,0824.7,5.00,000.00,020.0,019.4,000.0,028.5,021.7,23.6,0000.0,0010.20,0007.34,0007.08
2024-02-10 04:37:00,SystemResetWarning,0824.8,5.00,000.00,020.0,019.4,000.0,028.5,021.7,23.6,0000.0,0010.17,0007.32,0007.06
2024-02-10 04:38:00,SystemResetWarning,0824.8,5.00,000.00,020.0,019.4,000.0,028.5,021.7,23.6,0000.0,0009.98,0007.25,0007.02
2024-02-10 04:39:00,SystemResetWarning,0824.7,5.01,000.00,020.0,019.4,000.0,028.5,021.7,23.6,0000.0,0009.87,0007.20,0006.99
2024-02-10 04:40:00,SystemResetWarning,0824.8,5.00,000.00,019.9,019.4,000.0,028.5,021.7,23.6,0000.0,0009.79,0007.15,0006.95
2024-02-10 04:41:00,SystemResetWarning,0824.8,5.01,000.00,019.9,019.4,000.0,028.5,021.7,23.6,0000.0,0009.73,0007.10,0006.91
2024-02-10 04:42:00,SystemResetWarning,0824.8,4.99,000.00,019.9,019.4,000.0,028.5,021.7,23.6,0000.0,0009.75,0007.09,0006.88
2024-02-10 04:43:00,SystemResetWarning,0824.7,5.00,000.00,019.9,019.4,000.0,028.5,021.7,23.5,0000.0,0009.76,0007.05,0006.83
2024-02-10 04:44:00,SystemResetWarning,0824.7,4.99,000.00,019.9,019.4,000.0,028.5,021.7,23.5,0000.0,0009.69,0007.00,0006.78
2024-02-10 04:45:00,SystemResetWarning,0824.8,5.00,000.00,019.9,019.3,000.0,028.5,021.6,23.5,0000.0,0009.67,0006.97,0006.74
2024-02-10 04:46:00,SystemResetWarning,0824.8,5.00,000.00,019.9,019.3,000.0,028.5,021.6,23.5,0000.0,0009.58,0006.92,0006.69
2024-02-10 04:47:00,SystemResetWarning,0824.8,5.00,000.00,019.9,019.3,000.0,028.4,021.6,23.5,0000.0,0009.48,0006.84,0006.63
2024-02-10 04:48:00,SystemResetWarning,0824.8,5.00,000.00,019.9,019.3,000.0,028.4,021.6,23.4,0000.0,0009.37,0006.75,0006.55
2024-02-10 04:49:00,SystemResetWarning,0824.8,5.00,000.00,019.9,019.3,000.0,028.4,021.6,23.4,0000.0,0009.47,0006.68,0006.47
2024-02-10 04:50:00,SystemResetWarning,0824.9,5.00,000.00,019.9,019.3,000.0,028.4,021.6,23.4,0000.0,0009.43,0006.58,0006.36
2024-02-10 04:51:00,SystemResetWarning,0824.9,5.01,000.00,019.8,019.3,000.0,028.4,021.5,23.4,0000.0,0009.28,0006.42,0006.21
2024-02-10 04:52:00,SystemResetWarning,0824.9,5.00,000.00,019.8,019.3,000.0,028.4,021.5,23.3,0000.0,0009.10,0006.25,0006.04
2024-02-10 04:53:00,SystemResetWarning,0824.9,5.01,000.00,019.8,019.2,000.0,028.4,021.5,23.1,0000.0,0008.82,0006.04,0005.86
2024-02-10 04:54:00,SystemResetWarning,0824.9,5.00,000.00,019.8,019.2,000.0,028.4,021.5,23.0,0000.0,0008.47,0005.82,0005.67
2024-02-10 04:55:00,SystemResetWarning,0824.9,5.00,000.00,019.8,019.2,000.0,028.4,021.5,22.9,0000.0,0008.32,0005.66,0005.51
2024-02-10 04:56:00,SystemResetWarning,0824.9,5.00,000.00,019.8,019.2,000.0,028.4,021.4,22.8,0000.0,0008.13,0005.49,0005.36
2024-02-10 04:57:00,SystemResetWarning,0824.9,4.99,000.00,019.7,019.2,000.0,028.3,021.4,22.7,0000.0,0007.92,0005.31,0005.19
2024-02-10 04:58:00,SystemResetWarning,0824.9,5.00,000.00,019.7,019.2,000.0,028.3,021.4,22.5,0000.0,0007.71,0005.11,0005.00
2024-02-10 04:59:00,SystemResetWarning,0824.9,5.00,000.00,019.7,019.1,000.0,028.3,021.4,22.4,0000.0,0007.56,0004.94,0004.82
